This is the latest recevied weather packets stored in our database for station/object K4CRS-13. If no packets are shown the sender has not sent any weather packets the latest 10 day(s).
| Time | Temp. | Humidity | Pressure | Rain* | Wind** | Luminosity | Snow |
|---|---|---|---|---|---|---|---|
| 1777324198 | 27.78° C | 64% | 1048.3 hPa | 0 mm | - | 399 W/m² | - |
| 1777323897 | 27.78° C | 64% | 1048.4 hPa | 0 mm | - | 263 W/m² | - |
| 1777323593 | 27.22° C | 65% | 1048.7 hPa | 0 mm | - | 235 W/m² | - |
| 1777323290 | 27.78° C | 64% | 1048.6 hPa | 0 mm | - | 194 W/m² | - |
| 1777322989 | 27.22° C | 65% | 1048.7 hPa | 0 mm | - | 267 W/m² | - |
| 1777322686 | 27.22° C | 66% | 1048.7 hPa | 0 mm | - | 186 W/m² | - |
| 1777322384 | 27.22° C | 66% | 1048.6 hPa | 0 mm | - | 195 W/m² | - |
| 1777322080 | 27.22° C | 65% | 1048.7 hPa | 0 mm | - | 223 W/m² | - |
| 1777321777 | 27.22° C | 64% | 1048.8 hPa | 0 mm | - | 220 W/m² | - |
| 1777321474 | 27.78° C | 64% | 1048.8 hPa | 0 mm | - | 253 W/m² | - |
| 1777321171 | 27.78° C | 63% | 1048.8 hPa | 0 mm | - | 291 W/m² | - |
| 1777320869 | 28.33° C | 63% | 1048.8 hPa | 0 mm | - | 211 W/m² | - |
| 1777320565 | 28.89° C | 61% | 1049 hPa | 0 mm | - | 273 W/m² | - |
| 1777320263 | 28.89° C | 61% | 1049.1 hPa | 0 mm | - | 475 W/m² | - |
| 1777319959 | 29.44° C | 61% | 1048.9 hPa | 0 mm | - | 325 W/m² | - |
| 1777319657 | 28.89° C | 60% | 1048.8 hPa | 0 mm | - | 701 W/m² | - |
| 1777319353 | 29.44° C | 60% | 1048.8 hPa | 0 mm | - | 568 W/m² | - |
| 1777319050 | 29.44° C | 60% | 1049.1 hPa | 0 mm | - | 679 W/m² | - |
| 1777318747 | 29.44° C | 60% | 1049.1 hPa | 0 mm | - | 690 W/m² | - |
| 1777318443 | 28.33° C | 62% | 1049.5 hPa | 0 mm | - | 750 W/m² | - |
| 1777318141 | 28.33° C | 62% | 1049.4 hPa | 0 mm | - | 655 W/m² | - |
| 1777317837 | 28.33° C | 61% | 1049.3 hPa | 0 mm | - | 383 W/m² | - |
| 1777317534 | 28.89° C | 59% | 1049.5 hPa | 0 mm | - | 671 W/m² | - |
| 1777317231 | 28.89° C | 60% | 1049.7 hPa | 0 mm | - | 503 W/m² | - |
| 1777316927 | 28.89° C | 61% | 1049.6 hPa | 0 mm | - | 849 W/m² | - |
* Rain latest hour (hover to see other rain measurements)
** Current wind speed in m/s (hover to see current wind gust speed)